This is the latest recevied weather packets stored in our database for station/object W4KAB. If no packets are shown the sender has not sent any weather packets the latest 10 day(s).
| Time | Temp. | Humidity | Pressure | Rain* | Wind** | Luminosity | Snow |
|---|---|---|---|---|---|---|---|
| 1788135948 | 76° F | 91% | 766.9 mmHg | 0 in | - | 0 W/m² | - |
| 1788135643 | 76° F | 91% | 767.2 mmHg | 0 in | - | 0 W/m² | - |
| 1788135338 | 76° F | 90% | 767.1 mmHg | 0 in | - | 0 W/m² | - |
| 1788135035 | 76° F | 90% | 766.9 mmHg | 0 in | - | 0 W/m² | - |
| 1788134731 | 77° F | 90% | 766.9 mmHg | 0 in | - | 0 W/m² | - |
| 1788134430 | 77° F | 90% | 766.9 mmHg | 0 in | - | 0 W/m² | - |
| 1788134124 | 77° F | 89% | 766.9 mmHg | 0 in | - | 0 W/m² | - |
| 1788133819 | 77° F | 89% | 766.9 mmHg | 0 in | - | 0 W/m² | - |
| 1788133514 | 77° F | 89% | 767.1 mmHg | 0 in | - | 1 W/m² | - |
| 1788133210 | 77° F | 88% | 767 mmHg | 0 in | - | 2 W/m² | - |
| 1788132905 | 78° F | 88% | 767 mmHg | 0 in | - | 3 W/m² | - |
| 1788132601 | 78° F | 88% | 767 mmHg | 0 in | - | 5 W/m² | - |
| 1788132296 | 78° F | 88% | 766.8 mmHg | 0 in | - | 6 W/m² | - |
| 1788131992 | 78° F | 88% | 767 mmHg | 0 in | - | 6 W/m² | - |
| 1788131688 | 79° F | 87% | 767.1 mmHg | 0 in | - | 6 W/m² | - |
| 1788131387 | 79° F | 86% | 766.9 mmHg | 0 in | - | 7 W/m² | - |
| 1788131083 | 80° F | 85% | 767 mmHg | 0 in | - | 9 W/m² | - |
| 1788130781 | 80° F | 85% | 766.9 mmHg | 0 in | - | 11 W/m² | - |
| 1788130478 | 80° F | 84% | 766.7 mmHg | 0 in | - | 15 W/m² | - |
| 1788130172 | 81° F | 83% | 766.8 mmHg | 0 in | - | 14 W/m² | - |
| 1788129870 | 82° F | 82% | 766.9 mmHg | 0 in | - | 18 W/m² | - |
| 1788129567 | 82° F | 81% | 766.6 mmHg | 0 in | - | 20 W/m² | - |
| 1788129264 | 83° F | 79% | 766.8 mmHg | 0 in | - | 62 W/m² | - |
| 1788128962 | 83° F | 79% | 766.9 mmHg | 0 in | - | 58 W/m² | - |
| 1788128658 | 83° F | 78% | 766.8 mmHg | 0 in | - | 27 W/m² | - |
* Rain latest hour (hover to see other rain measurements)
** Current wind speed in m/s (hover to see current wind gust speed)